Location: El Escondido
(32.5691°N, 116.4250°W)
Time: 09:57:28
(UTC+00:00)

H-2A R/B - Pass Details

Date: 13 April 2024
Orbit: 732 x 833 km, 98.2° (Epoch: 22 May)

Event Time Altitude Azimuth Distance (km) Brightness Sun altitude
Rises 12:01:24 0° 14° (NNE) 3,195 5.8 -16.2°
Reaches altitude 10° 12:03:41 10° 17° (NNE) 2,280 5.0 -15.8°
Maximum altitude 12:08:41 74° 102° (ESE) 800 2.2 -14.8°
Drops below altitude 10° 12:13:49 10° 187° (S) 2,329 4.2 -13.8°
Sets 12:16:10 0° 189° (S) 3,270 5.0 -13.3°
